Weather in Litvino

Russia / Arkhangel'skaya Oblast'     61°34′22″N   48°01′05″E
temp.,
°C
wind,
m/s
gust,
m/s
humid.,
%
clouds,
%
prec.,
mm/h
press.,
hPa
HPBL,
m
21 april, wed
wed2100:00+1sse22795 0.0 102933
03:000sse22863 0.0 102931
06:00+2se287330 0.0 1027209
09:00+8se5944100 0.0 1025921
12:00+11se61231100 0.0 10221399
15:00+11se61434100 0.0 10201618
18:00+9sse6164482 0.0 10181583
21:00+4sse71578100 0.6 10171174
22 april, thu
thu2200:00+3sse61394100 0.8 1016961
03:00+3sse51396100 0.8 1015800
06:00+2sse51396100 0.4 1014700
09:00+2s51296100 1.4 1014705
12:00+3ssw41096100 0.5 1015615
15:00+7s5973100 0.6 10161159
18:00+7s497681 0.1 1017973
21:00+5s41085100 0.1 1017659
23 april, fri
fri2300:00+4ssw4119422 0.1 1018459
03:00+5ssw3108999 0.1 1019480
06:00+5s3990100 0.0 1020331
09:00+9s487074 0.0 1021599
12:00+12ssw575232 0.0 10211657
15:00+13s574733 0.0 10211767
18:00+11s4964100 0.0 1021622
21:00+9sse41072100 0.0 1022567
24 april, sat
sat2400:00+8sse41080100 0.0 1022464
03:00+7se31082100 0.0 1021392
06:00+7se41079100 0.0 1021432
09:00+11se46595 0.0 10201014
12:00+11se4552100 0.0 10181750
15:00+10ese4652100 0.0 10171584
18:00+8ese4867100 0.0 1016763
21:00+7ese3971100 0.0 1014527
25 april, sun
sun2500:00+6e3878100 0.0 1012452
03:00+6e3887100 0.1 1010510
06:00+5e3694100 0.6 1008897
09:00+6e3693100 1.3 1006932
12:00+6ese3793100 0.6 1005902
15:00+6ese3693100 1.6 1004880
18:00+5se2595100 1.2 1003598
21:00+3sw41097100 2.8 1004527